Emporia, Virginia, United States (23847)
Lat: 36.69N, Lon: 77.54W
Wx Zone: VAZ087
Local Info
Past Weather Observations for Friday, August 29, 2014

NOTE: This archive is for the closest National Weather Service station to Emporia. Information may differ from the station used for current weather conditions.

Click here for Long-term Archive

Time Weather Temperature Dewpoint Humidity Pressure Winds Precip Visibility
23:55
Overcast
70°F / 21°C 66°F / 19°C 88% 30.21 in
(1023 mb)
Calm - 10SM
23:35
Overcast
72°F / 22°C 66°F / 19°C 83% 30.24 in
(1024 mb)
Calm - 10SM
23:15
Overcast
70°F / 21°C 66°F / 19°C 88% 30.21 in
(1023 mb)
Calm - 10SM
22:55
Overcast
72°F / 22°C 66°F / 19°C 83% 30.21 in
(1023 mb)
Calm - 10SM
22:35
Overcast
72°F / 22°C 66°F / 19°C 83% 30.21 in
(1023 mb)
Calm - 10SM
22:15
Overcast
72°F / 22°C 66°F / 19°C 83% 30.21 in
(1023 mb)
Calm - 10SM
21:55
Overcast
72°F / 22°C 66°F / 19°C 83% 30.21 in
(1023 mb)
E 3.5 mph
(E 6 kph)
- 10SM
21:35
Overcast
72°F / 22°C 66°F / 19°C 83% 30.21 in
(1023 mb)
E 3.5 mph
(E 6 kph)
- 10SM
21:15
Mostly Cloudy
72°F / 22°C 66°F / 19°C 83% 30.21 in
(1023 mb)
E 4.6 mph
(E 7 kph)
- 10SM
20:55
Mostly Cloudy
72°F / 22°C 66°F / 19°C 83% 30.21 in
(1023 mb)
E 6.9 mph
(E 11 kph)
- 10SM
20:35
Overcast
72°F / 22°C 68°F / 20°C 88% 30.18 in
(1022 mb)
ENE 4.6 mph
(ENE 7 kph)
- 10SM
20:15
Overcast
73°F / 23°C 70°F / 21°C 89% 30.18 in
(1022 mb)
ENE 3.5 mph
(ENE 6 kph)
- 10SM
19:55
Overcast
73°F / 23°C 68°F / 20°C 83% 30.18 in
(1022 mb)
Calm - 10SM
19:35
Overcast
73°F / 23°C 70°F / 21°C 89% 30.18 in
(1022 mb)
ENE 3.5 mph
(ENE 6 kph)
- 10SM
19:15
Overcast
73°F / 23°C 70°F / 21°C 89% 30.15 in
(1021 mb)
Calm - 10SM
18:55
Overcast
73°F / 23°C 70°F / 21°C 89% 30.15 in
(1021 mb)
ENE 4.6 mph
(ENE 7 kph)
- 10SM
18:35
Overcast
75°F / 24°C 70°F / 21°C 83% 30.15 in
(1021 mb)
Calm -
18:15
Overcast
77°F / 25°C 70°F / 21°C 79% 30.15 in
(1021 mb)
ENE 3.5 mph
(ENE 6 kph)
- 10SM
17:55
Overcast
77°F / 25°C 68°F / 20°C 74% 30.15 in
(1021 mb)
ENE 4.6 mph
(ENE 7 kph)
- 10SM
17:35
Overcast
77°F / 25°C 70°F / 21°C 79% 30.15 in
(1021 mb)
ENE 3.5 mph
(ENE 6 kph)
- 10SM
17:15
Overcast
79°F / 26°C 70°F / 21°C 74% 30.15 in
(1021 mb)
ENE 4.6 mph
(ENE 7 kph)
-
16:55
Overcast
79°F / 26°C 70°F / 21°C 74% 30.15 in
(1021 mb)
ENE 4.6 mph
(ENE 7 kph)
- 10SM
16:35
Overcast
81°F / 27°C 70°F / 21°C 70% 30.15 in
(1021 mb)
ENE 5.8 mph
(ENE 9 kph)
-
16:15
Mostly Cloudy
81°F / 27°C 70°F / 21°C 70% 30.15 in
(1021 mb)
ENE 5.8 mph
(ENE 9 kph)
- 10SM
15:55
Mostly Cloudy
81°F / 27°C 70°F / 21°C 70% 30.15 in
(1021 mb)
E 5.8 mph
(E 9 kph)
- 10SM
15:35
Overcast
81°F / 27°C 70°F / 21°C 70% 30.15 in
(1021 mb)
ENE 5.8 mph
(ENE 9 kph)
-
15:15
Overcast
79°F / 26°C 68°F / 20°C 70% 30.15 in
(1021 mb)
NE 4.6 mph
(NE 7 kph)
- 10SM
14:55
Overcast
81°F / 27°C 68°F / 20°C 66% 30.15 in
(1021 mb)
ENE 3.5 mph
(ENE 6 kph)
- 10SM
14:35
Overcast
79°F / 26°C 68°F / 20°C 70% 30.15 in
(1021 mb)
ENE 4.6 mph
(ENE 7 kph)
- 10SM
14:15
Overcast
79°F / 26°C 68°F / 20°C 70% 30.15 in
(1021 mb)
ENE 4.6 mph
(ENE 7 kph)
- 10SM
13:55
Overcast
81°F / 27°C 68°F / 20°C 66% 30.15 in
(1021 mb)
ENE 6.9 mph
(ENE 11 kph)
- 10SM
13:35
Overcast
79°F / 26°C 68°F / 20°C 70% 30.15 in
(1021 mb)
NE 6.9 mph
(NE 11 kph)
- 10SM
13:15
Overcast
79°F / 26°C 68°F / 20°C 70% 30.15 in
(1021 mb)
NNE 4.6 mph
(NNE 7 kph)
- 10SM
12:55
Overcast
79°F / 26°C 68°F / 20°C 70% 30.18 in
(1022 mb)
NE 3.5 mph
(NE 6 kph)
-
12:35
Overcast
79°F / 26°C 68°F / 20°C 70% 30.18 in
(1022 mb)
N 5.8 mph
(N 9 kph)
- 10SM
12:15
Mostly Cloudy
79°F / 26°C 68°F / 20°C 70% 30.18 in
(1022 mb)
NE 5.8 mph
(NE 9 kph)
- 10SM
11:55
Mostly Cloudy
81°F / 27°C 68°F / 20°C 66% 30.18 in
(1022 mb)
ENE 5.8 mph
(ENE 9 kph)
- 10SM
11:35
Overcast
79°F / 26°C 68°F / 20°C 70% 30.18 in
(1022 mb)
NE 3.5 mph
(NE 6 kph)
- 10SM
11:15
Mostly Cloudy
79°F / 26°C 66°F / 19°C 65% 30.18 in
(1022 mb)
NE 5.8 mph
(NE 9 kph)
- 10SM
10:55
Partly Cloudy
77°F / 25°C 66°F / 19°C 69% 30.18 in
(1022 mb)
N 4.6 mph
(N 7 kph)
-
10:35
Partly Cloudy
77°F / 25°C 66°F / 19°C 69% 30.18 in
(1022 mb)
N 6.9 mph
(N 11 kph)
- 10SM
10:15
Partly Cloudy
77°F / 25°C 68°F / 20°C 74% 30.18 in
(1022 mb)
NE 4.6 mph
(NE 7 kph)
- 10SM
09:55
Partly Cloudy
77°F / 25°C 66°F / 19°C 69% 30.18 in
(1022 mb)
N 5.8 mph
(N 9 kph)
- 10SM
09:35
Clear
77°F / 25°C 66°F / 19°C 69% 30.18 in
(1022 mb)
N 8.1 mph
(N 13 kph)
- 10SM
09:15
Clear
75°F / 24°C 66°F / 19°C 74% 30.15 in
(1021 mb)
NNE 8.1 mph
(NNE 13 kph)
- 10SM
08:55
Clear
73°F / 23°C 66°F / 19°C 78% 30.18 in
(1022 mb)
NE 3.5 mph
(NE 6 kph)
- 10SM
08:35
Partly Cloudy
73°F / 23°C 64°F / 18°C 74% 30.18 in
(1022 mb)
NE 5.8 mph
(NE 9 kph)
- 10SM
08:15
Clear
72°F / 22°C 64°F / 18°C 78% 30.15 in
(1021 mb)
N 6.9 mph
(N 11 kph)
- 10SM
07:55
Partly Cloudy
70°F / 21°C 64°F / 18°C 83% 30.15 in
(1021 mb)
NE 3.5 mph
(NE 6 kph)
- 10SM
07:35
Overcast
68°F / 20°C 64°F / 18°C 88% 30.15 in
(1021 mb)
N 4.6 mph
(N 7 kph)
- 10SM
07:15
Overcast
68°F / 20°C 64°F / 18°C 88% 30.15 in
(1021 mb)
N 4.6 mph
(N 7 kph)
- 10SM
06:55
Overcast
68°F / 20°C 66°F / 19°C 94% 30.15 in
(1021 mb)
NNW 4.6 mph
(NNW 7 kph)
- 10SM
06:35
Overcast
68°F / 20°C 66°F / 19°C 94% 30.15 in
(1021 mb)
NNW 4.6 mph
(NNW 7 kph)
- 10SM
06:15
Overcast
68°F / 20°C 66°F / 19°C 94% 30.15 in
(1021 mb)
NNW 3.5 mph
(NNW 6 kph)
- 10SM
05:55
Overcast
68°F / 20°C 66°F / 19°C 94% 30.12 in
(1020 mb)
NNW 4.6 mph
(NNW 7 kph)
- 10SM
05:35
Overcast
68°F / 20°C 64°F / 18°C 88% 30.12 in
(1020 mb)
NNW 4.6 mph
(NNW 7 kph)
- 10SM
05:15
Overcast
68°F / 20°C 64°F / 18°C 88% 30.12 in
(1020 mb)
N 4.6 mph
(N 7 kph)
- 10SM
04:55
Mostly Cloudy
66°F / 19°C 64°F / 18°C 94% 30.09 in
(1019 mb)
N 4.6 mph
(N 7 kph)
- 10SM
04:35
Mostly Cloudy
66°F / 19°C 64°F / 18°C 94% 30.09 in
(1019 mb)
NNW 3.5 mph
(NNW 6 kph)
- 10SM
04:15
Mostly Cloudy
66°F / 19°C 64°F / 18°C 94% 30.09 in
(1019 mb)
N 3.5 mph
(N 6 kph)
- 10SM
03:55
Mostly Cloudy
68°F / 20°C 64°F / 18°C 88% 30.09 in
(1019 mb)
N 3.5 mph
(N 6 kph)
- 10SM
03:35
Mostly Cloudy
68°F / 20°C 64°F / 18°C 88% 30.09 in
(1019 mb)
Calm - 10SM
03:15
Mostly Cloudy
68°F / 20°C 64°F / 18°C 88% 30.09 in
(1019 mb)
Calm - 10SM
02:55
Partly Cloudy
68°F / 20°C 64°F / 18°C 88% 30.09 in
(1019 mb)
NE 3.5 mph
(NE 6 kph)
- 10SM
02:35
Mostly Cloudy
68°F / 20°C 66°F / 19°C 94% 30.09 in
(1019 mb)
Calm - 10SM
02:15
Overcast
68°F / 20°C 66°F / 19°C 94% 30.09 in
(1019 mb)
Calm - 10SM
01:55
Overcast
68°F / 20°C 66°F / 19°C 94% 30.09 in
(1019 mb)
NE 3.5 mph
(NE 6 kph)
- 10SM
01:35
Overcast
68°F / 20°C 66°F / 19°C 94% 30.09 in
(1019 mb)
NE 3.5 mph
(NE 6 kph)
- 10SM
01:15
Overcast
68°F / 20°C 66°F / 19°C 94% 30.09 in
(1019 mb)
NNE 3.5 mph
(NNE 6 kph)
- 10SM
00:55
Overcast
Thunder Storms
70°F / 21°C 68°F / 20°C 94% 30.09 in
(1019 mb)
N 6.9 mph
(N 11 kph)
0.34 in
(8.64 mm)
10SM
00:35
Overcast
Thunder Storms
70°F / 21°C 68°F / 20°C 94% 30.06 in
(1018 mb)
NE 9.2 mph
(NE 15 kph)
0.34 in
(8.64 mm)
7SM
00:15
Overcast
70°F / 21°C 70°F / 21°C 100% 30.06 in
(1018 mb)
NE 11.5 mph
(NE 19 kph)
0.33 in
(8.38 mm)
1 1/2SM
Time Weather Temperature Dewpoint Humidity Pressure Winds Precip Visibility


Weather for websites

WeatherForYou.com, LLC is not responsible for any damages or problems caused by this service. Current weather conditions are obtained from the closest station including government and personal stations which may have varying degrees of accuracy. Weather forecasts are derived from the NOAA NDFD. Like all things, this site belongs to Jesus Christ... He just trusts me to maintain it. If you have any questions or comments email webmaster@weatherforyou.com

Copyright © 2014, WeatherForYou.com LLC. All rights reserved.